W2GUX Weather Reports


time (UTC)temp
C
wind
direction
speed
KPH
gust
KPH
rain 1hr
cm
rain 24hr
cm
rain mn
cm
humidity
%
barometer
mb
20260504050503 9 187 3.2 6.4 0.00 0.00 0.00 48 1010.2
20260504050003 9 200 3.2 8.0 0.00 0.00 0.00 47 1010.2
20260504045503 9 193 4.8 9.7 0.00 0.00 0.00 47 1010.2
20260504045004 9 191 3.2 9.7 0.00 0.00 0.00 47 1010.2
20260504044504 9 193 1.6 9.7 0.00 0.00 0.00 47 1010.2
20260504044003 9 184 3.2 9.7 0.00 0.00 0.00 48 1010.1
20260504043503 9 181 1.6 9.7 0.00 0.00 0.00 48 1010.0
20260504043003 8 189 0.0 6.4 0.00 0.00 0.00 49 1009.9
20260504042503 8 220 1.6 9.7 0.00 0.00 0.00 49 1009.8
20260504042004 8 237 1.6 9.7 0.00 0.00 0.00 49 1009.8
20260504041504 8 302 0.0 3.2 0.00 0.00 0.00 50 1009.7
20260504041003 8 308 0.0 4.8 0.00 0.00 0.00 51 1009.7
20260504040503 8 318 0.0 4.8 0.00 0.00 0.00 51 1009.7
20260504040004 8 335 0.0 3.2 0.00 0.00 0.00 51 1009.6
20260504035503 8 342 0.0 1.6 0.00 0.00 0.00 52 1009.6
20260504035003 8 0 0.0 0.0 0.00 0.00 0.00 52 1009.6
20260504034503 8 343 0.0 3.2 0.00 0.00 0.00 53 1009.6
20260504034004 8 343 0.0 3.2 0.00 0.00 0.00 53 1009.6
20260504033504 8 343 0.0 4.8 0.00 0.00 0.00 52 1009.5
20260504033003 8 343 0.0 4.8 0.00 0.00 0.00 53 1009.6
20260504032503 7 343 0.0 3.2 0.00 0.00 0.00 52 1009.7
20260504032003 7 343 0.0 3.2 0.00 0.00 0.00 54 1009.6
20260504031504 7 343 0.0 3.2 0.00 0.00 0.00 58 1009.6
20260504031003 7 0 0.0 0.0 0.00 0.00 0.00 58 1009.6
20260504030504 7 0 0.0 0.0 0.00 0.00 0.00 59 1009.6
20260504030003 7 0 0.0 0.0 0.00 0.00 0.00 59 1009.5
20260504025503 7 0 0.0 0.0 0.00 0.00 0.00 59 1009.5
20260504025004 8 0 0.0 0.0 0.00 0.00 0.00 60 1009.5
20260504024503 8 0 0.0 0.0 0.00 0.00 0.00 60 1009.5
20260504024003 8 0 0.0 0.0 0.00 0.00 0.00 59 1009.5
20260504023503 8 0 0.0 0.0 0.00 0.00 0.00 58 1009.4
20260504023003 8 0 0.0 0.0 0.00 0.00 0.00 58 1009.5
20260504022503 8 0 0.0 0.0 0.00 0.00 0.00 57 1009.5
20260504022003 8 0 0.0 0.0 0.00 0.00 0.00 56 1009.5
20260504021504 8 0 0.0 0.0 0.00 0.00 0.00 55 1009.5
20260504021003 8 0 0.0 0.0 0.00 0.00 0.00 54 1009.5
20260504020503 9 0 0.0 0.0 0.00 0.00 0.00 54 1009.5
20260504020004 9 0 0.0 0.0 0.00 0.00 0.00 54 1009.5
20260504015504 9 0 0.0 0.0 0.00 0.00 0.00 53 1009.5
20260504015003 10 0 0.0 0.0 0.00 0.00 0.00 52 1009.4
20260504014503 10 0 0.0 0.0 0.00 0.00 0.00 52 1009.4
20260504014003 10 0 0.0 0.0 0.00 0.00 0.00 51 1009.3
20260504013503 10 0 0.0 0.0 0.00 0.00 0.00 49 1009.2
20260504013004 10 0 0.0 0.0 0.00 0.00 0.00 47 1009.2
20260504012504 10 0 0.0 0.0 0.00 0.00 0.00 46 1009.2
20260504012003 11 0 0.0 0.0 0.00 0.00 0.00 46 1009.2
20260504011503 11 0 0.0 0.0 0.00 0.00 0.00 45 1009.2
20260504011003 11 0 0.0 0.0 0.00 0.00 0.00 44 1009.1
20260504010503 11 0 0.0 0.0 0.00 0.00 0.00 42 1009.0
20260504010004 12 0 0.0 0.0 0.00 0.00 0.00 42 1008.9
20260504005503 12 0 0.0 0.0 0.00 0.00 0.00 41 1008.8
20260504005004 12 0 0.0 0.0 0.00 0.00 0.00 40 1008.7
20260504004503 12 0 0.0 0.0 0.00 0.00 0.00 38 1008.7
20260504004004 12 0 0.0 0.0 0.00 0.00 0.00 38 1008.7
20260504003504 13 0 0.0 0.0 0.00 0.00 0.00 36 1008.6
20260504003004 13 0 0.0 0.0 0.00 0.00 0.00 35 1008.6
20260504002503 13 343 0.0 3.2 0.00 0.00 0.00 33 1008.4
20260504002003 13 344 0.0 3.2 0.00 0.00 0.00 29 1008.3
20260504001504 13 341 0.0 9.7 0.00 0.00 0.00 28 1008.2
20260504001004 14 340 0.0 9.7 0.00 0.00 0.00 27 1008.2
20260504000503 14 336 0.0 3.2 0.00 0.00 0.00 28 1008.1
20260504000003 14 336 0.0 3.2 0.00 0.00 0.00 27 1008.1
20260503235504 14 330 1.6 9.7 0.00 0.00 0.00 27 1008.1
20260503235003 14 331 1.6 9.7 0.00 0.00 0.00 26 1008.0
20260503234504 14 346 1.6 9.7 0.00 0.00 0.00 26 1007.9
20260503234004 15 356 1.6 11.3 0.00 0.00 0.00 27 1007.8
20260503233503 15 346 0.0 11.3 0.00 0.00 0.00 26 1007.8
20260503233004 15 292 1.6 9.7 0.00 0.00 0.00 26 1007.7
20260503232503 15 258 1.6 6.4 0.00 0.00 0.00 25 1007.6
20260503232004 15 246 1.6 8.0 0.00 0.00 0.00 25 1007.6
20260503231504 15 283 1.6 8.0 0.00 0.00 0.00 25 1007.6
20260503231003 15 341 1.6 8.0 0.00 0.00 0.00 24 1007.5
20260503230503 15 319 1.6 11.3 0.00 0.00 0.00 23 1007.6
20260503230004 15 297 3.2 11.3 0.00 0.00 0.00 24 1007.6
20260503225504 15 321 3.2 9.7 0.00 0.00 0.00 24 1007.4
20260503225003 15 320 3.2 17.7 0.00 0.00 0.00 23 1007.4
20260503224503 15 308 3.2 17.7 0.00 0.00 0.00 23 1007.4
20260503224003 15 331 3.2 11.3 0.00 0.00 0.00 23 1007.5
20260503223503 15 355 3.2 11.3 0.00 0.00 0.00 24 1007.3
20260503223004 15 1 3.2 9.7 0.00 0.00 0.00 24 1007.2
20260503222503 15 9 3.2 12.9 0.00 0.00 0.00 24 1007.3
20260503222004 15 359 4.8 12.9 0.00 0.00 0.00 22 1007.3
20260503221503 15 335 4.8 17.7 0.00 0.00 0.00 23 1007.4
20260503221003 15 291 4.8 17.7 0.00 0.00 0.00 23 1007.4
20260503220503 15 293 6.4 16.1 0.00 0.00 0.00 22 1007.5
20260503220003 15 336 4.8 16.1 0.00 0.00 0.00 22 1007.4
20260503215503 15 315 6.4 17.7 0.00 0.00 0.00 21 1007.5
20260503215003 15 308 6.4 25.7 0.00 0.00 0.00 22 1007.5
20260503214503 15 324 6.4 25.7 0.00 0.00 0.00 22 1007.5
20260503214003 15 319 6.4 27.4 0.00 0.00 0.00 22 1007.4
20260503213504 15 321 6.4 27.4 0.00 0.00 0.00 21 1007.6
20260503213003 15 320 6.4 16.1 0.00 0.00 0.00 22 1007.4
20260503212504 15 330 6.4 27.4 0.00 0.00 0.00 22 1007.3
20260503212003 15 343 6.4 27.4 0.00 0.00 0.00 22 1007.4
20260503211504 15 307 8.0 20.9 0.00 0.00 0.00 22 1007.4
20260503211003 15 301 8.0 20.9 0.00 0.00 0.00 21 1007.5
20260503210504 15 320 8.0 25.7 0.00 0.00 0.00 23 1007.3
20260503210004 15 289 8.0 29.0 0.00 0.00 0.00 22 1007.3
20260503205504 15 298 6.4 29.0 0.00 0.00 0.00 22 1007.4
20260503205003 15 308 6.4 22.5 0.00 0.00 0.00 22 1007.5
20260503204504 15 314 8.0 25.7 0.00 0.00 0.00 22 1007.4
20260503204003 15 326 8.0 25.7 0.00 0.00 0.00 23 1007.5
20260503203503 15 313 8.0 27.4 0.00 0.00 0.00 22 1007.5
20260503203003 15 296 6.4 27.4 0.00 0.00 0.00 22 1007.4
20260503202503 15 291 4.8 17.7 0.00 0.00 0.00 22 1007.4
20260503202004 15 309 4.8 17.7 0.00 0.00 0.00 23 1007.5
20260503201503 15 322 6.4 20.9 0.00 0.00 0.00 24 1007.4
20260503201004 15 340 8.0 25.7 0.00 0.00 0.00 23 1007.6
20260503200503 15 345 6.4 25.7 0.00 0.00 0.00 22 1007.7
20260503200004 15 301 6.4 20.9 0.00 0.00 0.00 23 1007.6
20260503195503 15 315 8.0 29.0 0.00 0.00 0.00 22 1007.7
20260503195003 15 341 6.4 29.0 0.00 0.00 0.00 23 1007.7
20260503194503 15 342 8.0 27.4 0.00 0.00 0.00 23 1007.6
20260503194004 15 344 6.4 27.4 0.00 0.00 0.00 23 1007.9
20260503193503 15 342 4.8 22.5 0.00 0.00 0.00 25 1007.9
20260503193004 15 308 8.0 24.1 0.00 0.00 0.00 25 1007.9
20260503192503 15 322 8.0 24.1 0.00 0.00 0.00 24 1008.1
20260503192003 15 353 8.0 22.5 0.00 0.00 0.00 24 1007.9
20260503191504 15 323 8.0 22.5 0.00 0.00 0.00 24 1008.1
20260503191003 15 295 8.0 30.6 0.00 0.00 0.00 25 1008.0
20260503190504 15 317 8.0 30.6 0.00 0.00 0.00 23 1008.1
20260503190003 15 347 8.0 19.3 0.00 0.00 0.00 26 1008.0
20260503185504 14 346 8.0 27.4 0.00 0.00 0.00 25 1008.0
20260503185003 15 329 9.7 32.2 0.00 0.00 0.00 24 1008.2
20260503184503 15 329 8.0 32.2 0.00 0.00 0.00 24 1008.2
20260503184003 15 327 6.4 32.2 0.00 0.00 0.00 26 1008.0
20260503183503 15 314 6.4 27.4 0.00 0.00 0.00 25 1008.3
20260503183003 14 325 6.4 19.3 0.00 0.00 0.00 27 1008.2
20260503182504 14 333 8.0 27.4 0.00 0.00 0.00 26 1008.2
20260503182005 14 321 8.0 27.4 0.00 0.00 0.00 27 1008.2
20260503181504 14 298 8.0 22.5 0.00 0.00 0.00 26 1008.4
20260503181004 13 316 6.4 22.5 0.00 0.00 0.00 26 1008.3
20260503180503 14 334 6.4 20.9 0.00 0.00 0.00 26 1008.5
20260503180004 13 351 8.0 20.9 0.00 0.00 0.00 28 1008.4
20260503175503 13 343 6.4 20.9 0.00 0.00 0.00 27 1008.4
20260503175004 13 317 8.0 19.3 0.00 0.00 0.00 28 1008.6
20260503174504 13 336 8.0 24.1 0.00 0.00 0.00 27 1008.7
20260503174003 13 334 6.4 24.1 0.00 0.00 0.00 30 1008.7
20260503173003 13 309 4.8 22.5 0.00 0.00 0.00 27 1008.7
20260503172504 13 310 4.8 17.7 0.00 0.00 0.00 29 1008.7
20260503172004 13 312 6.4 17.7 0.00 0.00 0.00 29 1008.7
20260503171503 13 296 8.0 25.7 0.00 0.00 0.00 28 1008.8
20260503171003 12 292 6.4 25.7 0.00 0.00 0.00 31 1008.9
20260503170503 12 307 4.8 17.7 0.00 0.00 0.00 33 1009.0
20260503151003 12 338 4.8 27.4 0.00 0.00 0.00 29 1009.2
20260503150503 12 340 4.8 11.3 0.00 0.00 0.00 29 1009.2
20260503131003 8 331 8.0 25.7 0.00 0.00 0.00 47 1009.4
20260503130503 8 353 6.4 19.3 0.00 0.00 0.00 48 1009.4
20260503110503 6 350 4.8 19.3 0.00 0.00 0.00 54 1009.0
20260503090503 7 356 4.8 11.3 0.00 0.00 0.00 48 1007.8
20260503081504 7 336 3.2 8.0 0.00 0.03 0.00 49 1007.9
20260503081003 7 358 1.6 4.8 0.00 0.03 0.00 49 1007.8
20260503080503 7 358 3.2 9.7 0.00 0.03 0.00 51 1007.8
20260503072504 7 21 0.0 4.8 0.00 0.03 0.00 54 1007.7